Regional Weather Roundup
Issued by NWS Boston, MA

Current Version | Previous Version | Graphics & Text | Print | Product List | Glossary On
Versions: 1 2 3 4 5 6 7 8 9 10 11 12 13 14 15 16 17 18 19 20 21 22 23 24 25 26 27
000 ASUS41 KBOX 271610 RWRBOX REGIONAL WEATHER ROUNDUP NATIONAL WEATHER SERVICE BOSTON/NORTON MA 1200 PM EDT SUN MAY 27 2018 NOTE: "FAIR" INDICATES FEW OR NO CLOUDS BELOW 12,000 FEET WITH NO SIGNIFICANT WEATHER AND/OR OBSTRUCTIONS TO VISIBILITY. MAZALL-271700- EASTERN MASSACHUSETTS CITY SKY/WX TMP DP RH WIND PRES REMARKS BOSTON CLOUDY 54 46 74 NE17 30.21S BEVERLY CLOUDY 54 46 74 NE10 30.22R LAWRENCE CLOUDY 58 46 64 NE15 30.24S BEDFORD CLOUDY 55 46 71 E9 30.19F BLUE HILL N/A 52 45 77 E17G30 30.17S NORWOOD CLOUDY 58 47 66 NE17G23 30.18S MARSHFIELD CLOUDY 55 46 71 E14 30.19S PLYMOUTH CLOUDY 55 48 77 E14G24 30.18R TAUNTON CLOUDY 57 49 74 E12 30.16S NEW BEDFORD CLOUDY 55 53 93 NE10 30.14R $$ MAZALL-271700- CAPE COD AND THE ISLANDS CITY SKY/WX TMP DP RH WIND PRES REMARKS FALMOUTH N/A N/A N/A N/A MISG N/A HYANNIS CLOUDY 56 49 77 E14G25 30.11S CHATHAM CLOUDY 54 48 80 E15G24 30.16R PROVINCETOWN CLOUDY 54 45 71 E21G28 30.19R NANTUCKET LGT RAIN 53 50 89 E15G24 30.11R MARTHAS VNYRD LGT RAIN 54 50 86 E15G26 30.13R $$ MAZALL-271700- CENTRAL AND WESTERN MASSACHUSETTS CITY SKY/WX TMP DP RH WIND PRES REMARKS WORCESTER CLOUDY 49 48 97 NE14G22 30.16S FITCHBURG CLOUDY 52 50 93 VRB7 30.21S ORANGE LGT RAIN 53 50 89 NE10 30.18S SPRINGFIELD NOT AVBL WESTFIELD CLOUDY 57 52 83 NE14 30.14R NORTH ADAMS CLOUDY 57 51 80 E14G29 30.13R PITTSFIELD LGT RAIN 56 51 84 NE13G22 30.11R $$ RIZALL-271700- RHODE ISLAND CITY SKY/WX TMP DP RH WIND PRES REMARKS PROVIDENCE CLOUDY 57 51 80 E15 30.15S NEWPORT LGT RAIN 55 54 96 E12G20 30.12S FOG BLOCK ISLAND LGT RAIN 53 53 100 NE14G25 30.10S FOG SMITHFIELD CLOUDY 54 49 83 MISG 30.16R WESTERLY LGT RAIN 58 57 97 E16G22 30.11R FOG $$ CTZALL-271700- CONNECTICUT CITY SKY/WX TMP DP RH WIND PRES REMARKS BRADLEY INTL CLOUDY 58 52 80 NE13 30.12R HARTFORD CLOUDY 60 53 77 NE10 30.11R BRIDGEPORT CLOUDY 58 56 93 E14 30.06R FOG DANBURY CLOUDY 62 58 86 E16G23 30.07R GROTON LGT RAIN 58 57 97 NE13 30.09R FOG NEW HAVEN CLOUDY 60 58 92 NE7 30.07R FOG CHESTER CLOUDY 59 55 88 NE12 30.09R FOG MERIDEN CLOUDY 60 54 80 E7G17 30.10R WILLIMANTIC CLOUDY 57 52 83 NE10G21 30.13R OXFORD CLOUDY 59 56 89 NE14G20 30.09R $$ MEZ002-015-021-024-NHZ003-005-008-011-012-014-VTZ005-008-271700- NORTHERN NEW ENGLAND CITY SKY/WX TMP DP RH WIND PRES REMARKS PORTLAND ME CLOUDY 53 44 71 E10 30.30R BANGOR ME PTSUNNY 61 38 42 S5 30.28F CONCORD NH CLOUDY 57 44 62 E7 30.23S MANCHESTER NH CLOUDY 59 43 55 E14 30.21F NASHUA NH CLOUDY 56 46 69 E12G20 30.22F PORTSMOUTH NH CLOUDY 56 42 61 NE14G23 30.23F JAFFREY NH CLOUDY 52 49 89 MISG 30.20R KEENE NH CLOUDY 55 48 77 NE8 30.19S BURLINGTON VT CLOUDY 67 52 58 S9 30.10R MT. WASHINGTON PTSUNNY 39 32 75 S21G28 N/A WCI 29 $$ NYZ052-076-271700- EASTERN NEW YORK CITY SKY/WX TMP DP RH WIND PRES REMARKS ALBANY LGT RAIN 63 57 81 NE6 30.09S NEW YORK CITY LGT RAIN 64 60 87 E14 30.02F $$ ANZALL-271700- MARINE OBSERVATIONS STATION/POSITION TIME TEMP WIND PRES VSBY WAVE AIR SEA DIR/SP/G HT/PER (UTC) (F) (DEG/KT/KT) (MB) (MI) (FT/S) BOSTON BUOY 1550 53 56 70/ 16/ 19 1022.5R 5/ 7 BUZZARDS BAY 1500 53 70/ 22/ 24 1020.2R NANTUCKET SOUND 1550 53 58 70/ 23/ 27 1019.9R 4/ 4 MASS BAY-STELLWA 1504 52 54 1021.3F 5/ 6 ISLE OF SHOALS 1600 53 70/ 21/ 23 1023.0F S OF BLOCK IS 1543 52 N/A 4/ 5 $$ ......................KEY......................... SKY/WX - SKY CONDITION/PRESENT WEATHER TMP - TEMPERATURE IN FAHRENHEIT DWPT - DEWPOINT IN FAHRENHEIT RH - RELATIVE HUMIDITY IN PERCENT WIND - DIRECTION AND SPEED IN MPH PRES - MEAN SEA LEVEL PRESSURE IN INCHES OF HG WCI - WIND CHILL INDEX VSB - VISIBILITY IN MILES HX - HEAT INDEX TC - TEMPERATURE IN CELSIUS VRB - VARIABLE WIND DIRECTION N/A - NOT AVAILABLE

USA.gov is the U.S. government's official web portal to all federal, state and local government web resources and services.